Regional Weather Roundup
Issued by NWS

Home | Current Version | Previous Version | Text Only | Print | Product List | Glossary Off
Versions: 1 2 3 4 5 6 7 8 9 10 11 12 13 14 15 16 17 18 19 20 21 22 23 24 25 26 27 28 29 30 31 32 33 34 35 36 37 38 39 40 41 42 43 44 45 46 47 48 49 50

000
ASUS43 KIND 201709
RWRIN

WEATHER ROUNDUP FOR INDIANA
NATIONAL WEATHER SERVICE INDIANAPOLIS IN
100 PM EDT SUN MAY 20 2018

NOTE: "FAIR" INDICATES FEW OR NO CLOUDS BELOW 12,000 FEET WITH NO
SIGNIFICANT WEATHER AND/OR OBSTRUCTIONS TO VISIBILITY.

* - STATION DOES NOT REPORT WEATHER SUCH AS PRECIPITATION OR FOG.

+ - STATION NOT QUALITY CONTROLLED BY THE NATIONAL WEATHER SERVICE.
    USE DATA WITH CAUTION...ESPECIALLY DEWPOINT AND RELATIVE
    HUMIDITY OBSERVATIONS.

INZ001>003-010>013-019-020-201800-
NORTHWEST INDIANA

CITY           SKY/WX    TMP DP  RH WIND       PRES   REMARKS
GARY /AIRPORT/ CLOUDY    45  45 100 N10       30.23S
KNOX *+        CLOUDY    55  54  94 N8        30.17S
LA PORTE +     CLOUDY    53  51  93 NW9       30.19R
MICHIGAN CITY+ CLOUDY    45  45 100 N7        30.21R
MONTICELLO +   FAIR      69  60  73 NE7       30.12F
RENSSELAER +   CLOUDY    59  54  82 N13       30.14F HAZE
VALPARAISO     CLOUDY    50  46  86 NW10      30.20R

$$

LMZ046-743>745-201800-
SOUTHERN LAKE MICHIGAN

STATION/POSITION TIME  TEMP    WIND        PRES    WAVE
                       AIR SEA DIR/SP/G            HT
                 (UTC) (F)     (DEG/KT/KT) (MB)    (FT)
BURNS HARBOR     1640   44     350/ 14/ 17 1023.7R
5NW MICH CITY    1650   44 52   10/ 14/ 17   N/A     4

$$

INZ004-005-014>016-021>024-201800-
NORTH CENTRAL INDIANA

CITY           SKY/WX    TMP DP  RH WIND       PRES   REMARKS
ELKHART        CLOUDY    63  55  77 N6        30.18R
GOSHEN         LGT RAIN  62  58  86 MISG      30.15F FOG
LOGANSPORT +   CLOUDY    68  59  73 SE3       30.15F
PERU/GRISSOM   CLOUDY    67  66  96 CALM      30.14S
ROCHESTER +    CLOUDY    70  59  68 CALM      30.16R
SOUTH BEND     RAIN      57  56  96 N7        30.18S FOG
WARSAW +       CLOUDY    64  59  82 NE3       30.15S

$$

INZ006>009-017-018-025>027-201800-
NORTHEAST INDIANA

CITY           SKY/WX    TMP DP  RH WIND       PRES   REMARKS
ANGOLA *+      PTSUNNY   64  57  77 VRB6      30.16R
AUBURN +       CLOUDY    64  59  82 CALM      30.16F
FORT WAYNE     CLOUDY    68  61  78 VRB3      30.15S
HUNTINGTON +   FAIR      67  61  80 CALM      30.15S

$$

INZ028-029-035-036-043>045-051>053-201800-
WEST CENTRAL INDIANA

CITY           SKY/WX    TMP DP  RH WIND       PRES   REMARKS
CRAWFORDSVL +  FAIR      74  65  74 SE3       30.09F
GREENCASTLE +  FAIR      75  61  60 CALM      30.11S
LAFAYETTE      FAIR      69  63  81 NE10      30.08F
TERRE HAUTE    FAIR      77  64  64 SE5       30.09F

$$

INZ030>032-037>040-046>048-054>057-064-065-201800-
CENTRAL INDIANA

CITY           SKY/WX    TMP DP  RH WIND       PRES   REMARKS
FISHERS *+     PTSUNNY   77  70  78 CALM      30.12F
FRANKFORT +    FAIR      76  65  69 CALM      30.12F
GREENWOOD *+   FAIR      78  65  65 W5        30.12F
INDIANAPOLIS   PTSUNNY   79  65  62 VRB3      30.10F
-EAGLE CREEK   LGT RAIN  78  65  63 VRB3      30.10F
KOKOMO +       PTSUNNY   68  62  81 CALM      30.16S
MARION +       PTSUNNY   67  61  78 CALM      30.16R
MT COMFORT *+  FAIR      77  70  78 NW7       30.13S
SHELBYVILLE    FAIR      79  66  64 W8        30.12S
ZIONSVILLE +   FAIR      74  66  75 N7        30.12F

$$

INZ033-034-041-042-049-050-058-059-201800-
EAST CENTRAL INDIANA

CITY           SKY/WX    TMP DP  RH WIND       PRES   REMARKS
MUNCIE         FAIR      74  63  68 CALM      30.14R
RICHMOND +     FAIR      73  68  83 CALM      30.14F HAZE

$$

INZ060-061-067>069-081>083-085>088-201800-
SOUTHWEST INDIANA

CITY           SKY/WX    TMP DP  RH WIND       PRES   REMARKS
EVANSVILLE     FAIR      81  63  54 S5        30.11F
HUNTINGBURG +  FAIR      82  63  52 W5        30.11F
WASHINGTON +   FAIR      78  58  51 NW3       30.11F

$$

INZ062-063-066-070>080-084-089>092-201800-
SOUTH CENTRAL AND SOUTHEAST INDIANA

CITY           SKY/WX    TMP DP  RH WIND       PRES   REMARKS
BATESVILLE +   MOSUNNY   79  68  69 CALM      30.12F
BEDFORD +      FAIR      79  61  53 SW7       30.11F
BLOOMINGTON    FAIR      80  63  55 W7        30.10F
FRENCH LICK *+ FAIR      79  55  44 W3        30.12F
MADISON *+     FAIR      81  59  47 NW5       30.13F
NORTH VERNON + FAIR      79  64  61 W12       30.11F
SEYMOUR +      FAIR      84  63  48 NW10      30.10F

$$





USA.gov is the U.S. government's official web portal to all federal, state and local government web resources and services.